Starlink 6139

operational
NORAD ID: 57109 Int'l Des: 2023-090 Owner: SPXS Country: US Constellation: starlink
LEOCIRCULAR

关于 Starlink 6139

正在加载描述...

实时位置

正在加载3D地球...

即将过境

高度历史

Altitude vs Time

uPlot chart will show altitude changes over time

两行轨道根数

1 57109U 23090J 25350.33774205 -.00001380 00000-0 -87038-4 0 9996
2 57109 43.0069 7.6900 0001352 268.0061 92.0626 15.02549088137875
Epoch: Dec 16, 2025 • Age: 19 hours

当前状态

高度 563.5 km
速度 7.58 km/s
星下点 -21.61°S, 154.2°W
发射日期 Jun 23, 2023
运行时间 2.4 years
类型 internet

技术详情

分类 Payload
质量 305.00 kg
干质量 290.00 kg
总质量 305.00 kg
长度 0.20 m
直径 2.80 m
跨度 9.00 m
形状 Box + pan
制造商 SPXS
平台类型 Starlink
阶段状态 In Orbit
所有者/国家 SPXS/US

大型星座

Loading constellations...